sat.trackr.live / text

‹ back to catalog

STARLINK-35400

NORAD 66333 · 2025-253Q

PAYLOAD ACTIVE UNKNOWN

§ Identity

Operator
Country
US
Launch date
2025-11-06
Launch site
AFETR
Launch vehicle
Mass (kg)
RCS (m²)

Purposes: comms

External: N2YO · Heavens-Above · Gunter

§ Orbital elements

Epoch: 2026-09-20T16:00:01.999584Z

Period
94.27 min
Inclination
42.9992°
Eccentricity
0.0001852
Mean motion
15.27558349 rev/d
Perigee alt
481.8 km
Apogee alt
484.4 km
Semi-major
6,861.3 km
B*
7.0228e-4
RAAN
191.8207°
Arg perigee
298.8664°
Mean anomaly
237.0158°
Rev number
578

§ Raw data

STARLINK-354001 66333U 25253Q   26263.66668981  .00019101  00000+0  70228-3 0  99902 66333  42.9992 191.8207 0001852 298.8664 237.0158 15.27558349  5780

JSON: /api/v1/satellites/66333 · /tle

For live sub-satellite position, see the globe view (requires WebGL).

§ Visibility from observer

Set your observer location to see the next 7 days of passes ≥ 10°. The values pass through the URL so the page stays shareable.

No JS? Fill the form by hand. The geolocation button needs JavaScript.